Regional Weather Roundup
Issued by NWS

Home | Current Version | Previous Version | Graphics & Text | Print | Product List | Glossary On
Versions: 1 2 3 4 5 6 7 8 9 10 11 12 13 14 15 16 17 18 19 20 21 22 23 24 25 26 27 28 29 30 31 32 33 34 35 36 37 38 39 40 41 42 43 44 45 46 47 48 49 50
747
ASUS44 KLIX 260210
RWRLA
LOUISIANA WEATHER ROUNDUP
NATIONAL WEATHER SERVICE NEW ORLEANS LA
800 PM CST TUE NOV 25 2014

NOTE: "FAIR" INDICATES FEW OR NO CLOUDS BELOW 12,000 FEET WITH NO
      SIGNIFICANT WEATHER AND/OR OBSTRUCTIONS TO VISIBILITY.
      SKY/WX - SKY CONDITION AND SIGNIFICANT WEATHER.
      TMP - AIR TEMPERATURE.    DP   - DEWPOINT TEMPERATURE.
      RH  - RELATIVE HUMIDITY.  PRES - PRESSURE.
      HX  - HEAT INDEX.         WCI  - WIND CHILL INDEX.

*  THESE STATIONS ARE NOT NWS OR FAA STATIONS AND ARE NOT UNDER
   NWS QUALITY CONTROL.

LAZ040-048-061>063-065-066-069-260300-
SOUTHEAST LOUISIANA

CITY           SKY/WX    TMP DP  RH WIND       PRES   REMARKS
N.O. AUDUBON     N/A     54  32  43 MISG        N/A
N.O. INTL ARPT CLOUDY    51  31  46 N13       30.23R
N.O. LAKEFRONT CLOUDY    53  33  46 N21       30.22R
N.O. DOWNTOWN* FAIR      52  28  40 N9G21     30.22R
SLIDELL        CLOUDY    50  32  50 N5        30.21R
BATON ROUGE    CLEAR     40  33  76 NW3       30.24R
BOOTHVILLE     CLOUDY    55  38  52 NW14G23   30.18S
BELLE CHASSE   CLOUDY    53  31  42 N8        30.20R
BOGALUSA*        N/A     49  31  50 N3        30.22S
NEW ROADS*     FAIR      39  35  86 CALM      30.25R
GONZALES*      FAIR      43  35  72 CALM      30.23S
HAMMOND*       PTCLDY    43  34  70 CALM      30.24R
HOUMA*         MOCLDY    47  34  59 N3        30.23R
PORT FOURCHON* CLEAR     54  37  54 N12G22    30.24R

$$

LAZ041-044-053-054-260300-
SOUTHWEST LOUISIANA

CITY           SKY/WX    TMP DP  RH WIND       PRES   REMARKS
LAKE CHARLES   CLEAR     41  38  89 SE3       30.25S
LAFAYETTE      CLEAR     42  35  76 CALM      30.26R
PATTERSON      CLEAR     46  34  61 NW3       30.26R
SALT POINT       N/A     53  36  52 VRB5      30.24R
NEW IBERIA     CLEAR     42  38  85 W3        30.27R
CHENAULT AIRPK NOT AVBL

$$

LAZ027-028-260300-
CENTRAL LOUISIANA

CITY           SKY/WX    TMP DP  RH WIND       PRES   REMARKS
FORT POLK      CLEAR     42  39  90 SE1       30.22F
ALEXANDRIA INT CLEAR     41  34  76 SE5       30.23S
ALEXANDRIA     CLEAR     37  35  92 CALM      30.24S

$$

LAZ001-002-260300-
NORTHWEST LOUISIANA

CITY           SKY/WX    TMP DP  RH WIND       PRES   REMARKS
SHREVEPORT     PTCLDY    47  31  53 SE3       30.18S
BARKSDALE AFB  CLEAR     40  30  66 SE6       30.19S
DTN SHREVEPORT PTCLDY    48  28  46 SE5       30.19S

$$

LAZ014-016-260300-
NORTHEAST LOUISIANA

CITY           SKY/WX    TMP DP  RH WIND       PRES   REMARKS
MONROE         CLEAR     37  33  85 CALM      30.24R
TALLULAH       CLEAR     33  29  85 CALM      30.25R

$$




USA.gov is the U.S. government's official web portal to all federal, state and local government web resources and services.